Torna al catalogo

NOAA 16 DEB

AttivoPO
NORAD 41053·DEBRIS·🇺🇸 United States

Lanciato Sep 21, 2000 da Vandenberg Space Force Base

Loading…

Prossimi Passaggi (prossime 24 ore)

TLE

AggiornatoSource: Space-Track

Epoca: Sep 14, 2026, 14:13 UTC

1 41053U 00055L   26257.59299708  .00004618  00000-0  10643-2 0  9999
2 41053  98.9902 127.7740 0020731 196.3493 163.7036 14.55723554563379

Traccia NOAA 16 DEB in tempo reale con AllMySat

Download on the App Store